Orbital Elements at Epoch 2459200.5 (2020-Dec-17.0) TDB
Reference: JPL 20 (heliocentric ecliptic J2000)
Element | Value | Uncertainty (1-sigma) | Units |
e | .1235367582751108 | 5.162e-08 | |
a | 2.767210384376722 | 1.8947e-08 | au |
q | 2.425358184025598 | 1.4457e-07 | au |
i | 19.48659358987171 | 5.3786e-06 | deg |
node | 42.83760661921897 | 1.3205e-05 | deg |
peri | 356.5265170389275 | 2.2792e-05 | deg |
M | 227.744251680907 | 1.9924e-05 | deg |
tp | 2459818.194524226533 (2022-Aug-26.69452423) | 9.6209e-05 | TDB |
period | 1681.363808740022 4.60 | 1.7268e-05 4.728e-08 | d yr |
n | .2141119001899869 | 2.199e-09 | deg/d |
Q | 3.109062584727845 | 2.1288e-08 | au |
|
| | Orbit Determination Parameters
Additional Information
|